Home > Weather > Owerri > Past weeks

Flag for Nigeria Weather for the Past 2 Weeks in Owerri, Nigeria

Now
81 °F

Fog.


Feels Like: 86 °F
Forecast: 70 / 99 °F
Wind: 5 mph from Southwest

Location: Malabo/Fernando Poo

Current Time: Feb 12, 2016 at 9:50:06 PM

Latest Report: Feb 12, 2016 at 9:00 PM


Visibility: 2 mi

Pressure: 29.89 "Hg

Humidity: 84%

Dew point: 75 °F

Location of OwerriLocation

Historic Weather in Owerri — Graph

°F

Owerri Temperature Yesterday

Maximum temperature yesterday: 88 °F (at 12:00 PM)
Minimum temperature yesterday: 73 °F (at 1:00 AM)
Average temperature yesterday: 80 °F

High & Low Weather Summary for the Past Weeks

 TemperatureHumidityPressure
High90 °F (Feb 4, 2:00 PM)94% (Jan 30, 5:00 AM)30.01 "Hg (Jan 30, 5:00 AM)
Low70 °F (Jan 30, 7:00 AM)43% (Jan 31, 11:00 AM)29.77 "Hg (Feb 2, 3:00 PM)
Average81 °F75%29.89 "Hg
* Reported Jan 28 9:00 PM — Feb 12 9:00 PM, Owerri, Weather by CustomWeather, © 2016

Note: Actual official high and low records may vary slightly from our data, if they occured in-between our weather recording intervals... More about our weather records

Advertising

Owerri Weather History for the Previous 24 Hours

 ConditionsComfort  
Time TempWeatherWind HumidityBarometerVisibility
9:00 PM
Fri, Feb 12
81 °FFog.5 mph84%29.89 "Hg2 mi
8:00 PM81 °FFog.5 mph84%29.89 "Hg1 mi
7:00 PM81 °FFog.3 mph89%29.86 "Hg2 mi
6:00 PM82 °FFog.5 mph84%29.83 "Hg2 mi
5:00 PM82 °FFog.3 mph84%29.83 "Hg2 mi
4:00 PM82 °FFog.3 mph84%29.83 "Hg2 mi
3:00 PM82 °FFog.7 mph84%29.83 "Hg2 mi
2:00 PM79 °FLight rain. Fog.3 mph94%29.86 "Hg3 mi
1:00 PM79 °FDrizzle. Mostly cloudy.8 mph89%29.89 "Hg1 mi
12:00 PM79 °FDrizzle. Fog.6 mph84%29.92 "Hg2 mi
11:00 AM84 °FFog.7 mph79%29.92 "Hg2 mi
10:00 AM81 °FFog.9 mph89%29.92 "Hg2 mi
9:00 AM84 °FFog.3 mph74%29.89 "Hg3 mi
8:00 AM79 °FFog.3 mph84%29.89 "Hg3 mi
7:00 AM77 °FFog.3 mph89%29.86 "Hg3 mi
6:00 AM77 °FFog.5 mph83%29.86 "Hg3 mi
5:00 AM75 °FFog.3 mph89%29.83 "Hg3 mi
4:00 AM75 °FFog.7 mph89%29.83 "Hg3 mi
3:00 AM75 °FFog.6 mph89%29.83 "Hg3 mi
2:00 AM77 °FFog.6 mph89%29.83 "Hg3 mi
1:00 AM79 °FFog.5 mph84%29.86 "Hg3 mi
12:00 AM81 °FFog.6 mph79%29.86 "Hg3 mi
11:00 PM
Thu, Feb 11
79 °FFog.5 mph84%29.89 "Hg2 mi
10:00 PM81 °FFog.6 mph79%29.86 "Hg2 mi
9:00 PM81 °FFog.5 mph79%29.86 "Hg2 mi
Weather by CustomWeather, © 2016

See weather overviewHow to use our weather pages